Theta_e
300 306 307 307 308 309 309 309 310 311 313 313 313 313 314 314 314 313 314 315 316 319 320 325 328 330 332 333 335 335 335 336 337
297 298 298 301 306 306 305 307 308 308 309 309 310 312 309 307 307 310 312 311 311 314 316 317 324 327 328 331 333 334 335 335 336
297 297 298 300 302 302 304 304 304 305 306 306 308 305 300 300 301 307 308 306 304 307 313 315 317 323 326 328 331 332 334 335 336
298 297 297 299 300 302 301 301 302 301 300 300 299 298 298 298 299 305 304 304 305 303 304 313 316 319 324 326 328 330 332 333 335
297 297 297 297 298 300 300 301 300 300 298 299 299 299 299 301 302 302 303 304 303 301 303 309 313 316 319 322 326 328 329 331 333
297 298 297 298 299 299 300 301 301 301 301 301 301 300 301 301 301 302 302 303 305 305 306 308 310 314 316 319 322 325 327 328 329
299 298 299 299 299 300 300 301 301 300 300 300 300 300 300 300 300 301 302 303 304 305 306 307 309 312 314 316 318 321 324 325 327
298 298 298 298 299 299 300 300 300 300 300 300 300 300 299 299 300 301 302 303 303 305 306 307 308 310 312 314 316 317 319 322 325
298 298 298 299 299 299 299 299 299 299 299 299 299 299 299 299 299 300 301 302 303 304 305 306 307 309 311 314 315 315 318 320 322
297 298 298 299 299 298 297 298 298 298 298 298 299 299 299 299 299 300 300 301 302 303 304 304 306 308 309 312 314 314 316 318 319
297 298 298 298 297 297 296 297 297 297 298 298 299 300 300 300 300 300 300 301 301 302 303 304 305 307 308 310 313 314 315 317 319
298 298 298 297 296 297 296 297 297 297 297 298 299 300 300 300 300 300 300 300 301 301 302 303 304 305 306 307 312 314 314 314 317
297 298 298 297 297 297 297 297 297 297 297 298 298 298 299 299 300 300 300 300 299 300 300 302 303 304 306 307 309 312 312 313 315
297 298 297 297 297 297 297 298 297 297 297 297 298 298 298 298 300 300 300 299 299 299 299 300 301 303 304 305 307 311 312 312 314
296 297 297 296 296 297 297 298 298 298 298 297 298 299 299 300 300 300 300 299 300 298 299 300 301 303 303 304 306 310 311 311 312
296 296 296 296 296 296 296 297 298 297 298 299 298 299 299 300 299 299 299 299 298 299 299 301 301 301 303 304 306 308 310 312 316
296 296 296 296 296 296 295 295 296 296 297 297 297 298 297 298 297 298 298 299 298 299 300 301 301 302 303 304 306 307 308 314 319
296 296 296 296 296 295 294 295 295 296 296 296 297 298 297 297 298 297 298 298 298 300 300 302 301 303 304 304 305 307 313 319 322
297 297 297 296 296 296 295 294 294 294 294 295 296 296 297 296 298 297 297 298 298 300 302 303 303 304 306 307 307 312 317 319 320
297 297 296 296 296 296 296 295 295 294 294 294 294 295 295 295 297 297 297 298 297 300 301 302 304 305 307 308 310 314 314 314 310
Wind_Speed
15 14 15 14 16 16 16 16 17 18 18 18 16 16 15 15 18 16 17 21 17 22 21 25 23 21 20 19 15 17 17 18 19
16 17 17 16 16 17 18 18 17 17 17 19 19 19 19 19 20 16 16 19 21 21 25 21 22 25 22 23 22 18 19 18 17
18 19 18 18 18 19 18 18 19 18 18 18 19 21 23 21 20 16 17 20 19 19 20 20 21 20 23 22 24 25 21 22 19
21 22 22 21 20 18 20 20 20 21 22 21 22 23 22 21 19 16 15 14 17 20 22 19 18 20 23 26 25 27 27 24 23
21 22 24 24 22 20 20 20 21 22 22 21 20 21 21 14 16 16 14 16 20 21 20 20 20 21 24 24 25 25 30 30 28
19 20 23 22 22 22 19 21 20 21 17 18 19 20 14 16 16 16 15 18 19 21 21 21 22 20 22 25 30 27 27 33 33
17 17 18 19 19 19 19 20 20 16 17 17 17 15 17 18 17 17 18 20 21 21 22 23 23 23 24 24 26 30 29 30 32
16 17 17 18 19 19 20 19 17 18 18 17 17 18 18 18 18 17 20 22 23 23 23 23 23 24 26 26 25 26 33 36 31
16 16 17 18 18 19 18 18 19 19 17 18 17 18 18 18 20 20 21 23 24 25 25 24 25 25 26 27 26 28 26 30 32
16 16 16 16 16 17 19 17 19 19 18 18 18 17 18 18 19 21 22 24 25 25 26 27 27 26 26 28 28 26 27 26 30
15 14 14 15 15 15 18 16 17 19 18 18 18 19 19 19 20 21 23 23 24 26 27 27 28 28 27 27 28 30 28 27 27
14 13 14 16 17 19 20 19 20 21 20 19 18 20 20 21 21 22 23 22 23 26 26 27 28 28 29 30 29 29 28 29 27
14 14 15 17 20 19 20 20 21 22 20 20 20 22 23 20 21 20 20 23 26 28 27 26 28 29 29 30 31 31 30 31 30
14 13 15 19 17 18 18 17 20 22 21 22 24 22 22 16 17 17 20 24 27 31 33 32 30 31 32 31 31 31 31 32 31
14 13 14 19 18 18 18 18 19 19 20 26 22 23 20 23 14 21 22 22 26 33 27 28 28 27 28 29 30 30 32 31 31
14 14 15 16 19 20 16 15 19 21 19 22 25 18 17 9 19 17 20 25 31 30 25 24 24 25 24 25 27 29 29 28 29
13 15 14 15 16 17 21 20 20 21 19 24 25 17 26 16 19 19 20 24 34 26 23 19 18 20 19 20 21 23 25 26 25
14 14 15 15 16 16 20 18 17 21 19 18 20 12 11 30 12 19 21 26 32 23 19 15 13 14 18 18 14 16 18 18 21
12 14 14 14 14 15 17 18 18 18 20 19 15 18 22 23 19 22 22 25 31 21 14 16 15 14 13 15 15 15 17 17 19
11 13 13 13 14 14 16 16 17 19 18 21 22 21 22 22 22 25 34 27 29 13 17 20 15 9 7 8 11 17 17 21 23
Wind_Direction
351 348 346 346 342 338 334 336 335 331 328 330 327 324 306 275 279 292 280 268 279 250 259 242 247 256 246 246 242 243 244 246 246
347 343 340 340 339 335 333 333 326 321 321 323 318 311 308 306 291 290 293 289 269 279 269 272 248 243 251 247 244 246 242 245 249
344 343 341 340 334 334 334 327 324 321 319 316 315 306 308 308 302 298 287 283 287 279 280 279 278 261 253 258 250 245 244 245 243
344 342 340 341 339 338 331 331 326 326 322 316 313 310 310 309 310 298 292 293 283 278 273 282 281 259 254 251 254 251 249 249 246
340 335 334 335 334 336 333 333 330 328 327 324 320 318 317 328 298 305 296 290 291 287 283 281 279 279 253 256 251 253 248 250 246
340 336 337 337 335 336 336 333 331 333 339 326 323 333 327 313 306 300 297 294 296 298 295 289 281 279 273 260 252 251 249 245 251
340 337 340 337 337 337 334 335 336 333 327 324 326 320 314 311 307 302 297 296 297 296 295 290 284 277 272 267 263 252 252 246 250
341 340 338 339 338 337 336 336 334 329 326 323 319 315 315 310 306 299 297 298 298 297 293 290 285 276 270 268 267 263 252 250 258
343 342 341 341 339 334 334 333 332 332 326 318 320 317 313 309 305 302 299 298 299 296 294 289 284 278 269 267 265 264 266 262 262
344 343 345 342 337 334 336 338 336 332 329 331 322 320 314 310 307 304 302 302 300 297 293 289 283 280 272 264 263 262 263 258 258
345 345 343 345 347 336 336 340 333 335 332 328 330 321 317 313 308 305 302 301 300 299 295 289 282 277 273 265 262 261 261 257 258
351 345 344 336 346 352 359 351 339 332 334 331 326 320 314 309 306 304 306 307 300 297 292 288 284 277 272 265 260 260 259 257 259
352 347 341 334 341 343 349 347 341 341 334 327 326 318 312 311 310 306 306 298 306 307 297 289 284 278 271 265 259 257 259 259 257
354 346 339 333 337 344 340 337 343 338 335 338 325 320 321 331 316 312 309 301 306 299 291 288 281 276 269 262 257 254 254 257 257
353 346 344 335 347 339 336 335 334 333 331 331 337 323 336 324 313 309 314 311 300 313 299 299 289 280 270 263 254 249 252 256 256
356 349 344 342 340 336 335 330 329 331 340 321 325 326 323 344 314 328 314 317 316 313 303 296 295 281 271 264 251 247 251 254 256
355 353 350 347 344 340 341 343 337 327 334 325 329 328 334 309 341 326 325 317 325 316 306 297 283 273 276 267 260 258 254 255 253
354 354 350 349 347 343 339 345 338 329 331 327 325 320 318 322 317 332 324 327 333 319 311 305 289 285 274 273 269 261 249 238 208
352 353 349 344 342 342 340 339 338 335 330 333 330 314 316 321 311 323 338 341 329 325 337 334 308 287 268 266 255 229 180 203 170
346 348 348 349 346 339 337 335 336 333 332 330 332 332 325 325 317 321 332 338 340 324 11 3 351 351 334 249 234 206 174 158 118